OneWeb SL0643

operational
NORAD ID: 55807 Int'l Des: 2023-029 Owner: ONEWEBN Country: UK Constellation: oneweb
LEOCIRCULARPOLARONEWEB_TYPE

About OneWeb SL0643

Description loading...

Live Position

Loading 3D Globe...

Upcoming Passes

Altitude History

Altitude vs Time

uPlot chart will show altitude changes over time

Two-Line Element Set

1 55807U 23029M 25303.11614702 -.00000053 00000-0 -17873-3 0 9995
2 55807 87.9022 335.5755 0002054 93.1092 267.0273 13.14501084129166
Epoch: Oct 30, 2025 • Age: 18 hours

Current Status

Altitude 1215.2 km
Velocity 7.25 km/s
Sub-Earth Point -23.40°S, 18.97°W
Launch Date Mar 9, 2023
Age 2.6 years
Type internet

Technical Details

Classification Payload
Mass 148.00 kg
Dry Mass 140.00 kg
Total Mass 148.00 kg
Length 1.30 m
Diameter 1.00 m
Span 5.00 m
Shape Trapezoid+2 pan
Manufacturer ONEWUS
Bus Type ARROW
Phase Status In Orbit
Owner/State ONEWEBN/UK

Large Constellations

Loading constellations...